TimeCST,TemperatureF,Dew PointF,Humidity,Sea Level PressureIn,VisibilityMPH,Wind Direction,Wind SpeedMPH,Gust SpeedMPH,PrecipitationIn,Events,Conditions,WindDirDegrees,DateUTC
12:15 AM,-7.6,-18.4,59,30.42,10.0,NW,5.8,-,N/A,,Clear,320,2014-01-21 06:15:00
12:35 AM,-7.6,-18.4,59,30.43,10.0,NNW,5.8,-,N/A,,Clear,330,2014-01-21 06:35:00
12:55 AM,-7.6,-18.4,59,30.42,10.0,NW,4.6,-,N/A,,Clear,310,2014-01-21 06:55:00
1:15 AM,-7.6,-18.4,59,30.42,10.0,Calm,Calm,-,N/A,,Clear,0,2014-01-21 07:15:00
1:36 AM,-9.4,-20.2,59,30.42,10.0,Calm,Calm,-,N/A,,Clear,0,2014-01-21 07:36:00
1:55 AM,-13.0,-23.8,59,30.42,10.0,Calm,Calm,-,N/A,,Clear,0,2014-01-21 07:55:00
2:15 AM,-14.8,-23.8,64,30.43,10.0,Calm,Calm,-,N/A,,Clear,0,2014-01-21 08:15:00
2:35 AM,-11.2,-20.2,64,30.43,10.0,Calm,Calm,-,N/A,,Clear,0,2014-01-21 08:35:00
2:55 AM,-14.8,-23.8,64,30.43,10.0,Calm,Calm,-,N/A,,Clear,0,2014-01-21 08:55:00
3:16 AM,-16.6,-23.8,70,30.43,10.0,West,3.5,-,N/A,,Clear,260,2014-01-21 09:16:00
3:35 AM,-14.8,-23.8,64,30.42,10.0,WNW,3.5,-,N/A,,Clear,290,2014-01-21 09:35:00
3:55 AM,-13.0,-22.0,64,30.42,10.0,Calm,Calm,-,N/A,,Clear,0,2014-01-21 09:55:00
4:16 AM,-16.6,-23.8,70,30.42,10.0,WNW,3.5,-,N/A,,Clear,290,2014-01-21 10:16:00
4:35 AM,-14.8,-23.8,64,30.42,10.0,Calm,Calm,-,N/A,,Clear,0,2014-01-21 10:35:00
4:56 AM,-14.8,-23.8,64,30.42,10.0,WNW,3.5,-,N/A,,Clear,300,2014-01-21 10:56:00
5:15 AM,-16.6,-23.8,70,30.41,10.0,Calm,Calm,-,N/A,,Clear,0,2014-01-21 11:15:00
5:36 AM,-14.8,-23.8,64,30.39,10.0,Calm,Calm,-,N/A,,Clear,0,2014-01-21 11:36:00
5:55 AM,-18.4,-25.6,70,30.38,10.0,Calm,Calm,-,N/A,,Clear,0,2014-01-21 11:55:00
6:15 AM,-20.2,-27.4,69,30.38,10.0,Calm,Calm,-,N/A,,Clear,0,2014-01-21 12:15:00
6:35 AM,-18.4,-25.6,70,30.37,10.0,Calm,Calm,-,N/A,,Clear,0,2014-01-21 12:35:00
6:55 AM,-18.4,-27.4,63,30.37,10.0,Calm,Calm,-,N/A,,Clear,0,2014-01-21 12:55:00
7:16 AM,-20.2,-29.2,63,30.37,10.0,Calm,Calm,-,N/A,,Clear,0,2014-01-21 13:16:00
7:35 AM,-22.0,-29.2,69,30.38,10.0,Calm,Calm,-,N/A,,Clear,0,2014-01-21 13:35:00
7:55 AM,-18.4,-27.4,63,30.37,10.0,WSW,4.6,-,N/A,,Clear,250,2014-01-21 13:55:00
8:16 AM,-18.4,-25.6,70,30.36,10.0,Calm,Calm,-,N/A,,Clear,0,2014-01-21 14:16:00
8:35 AM,-16.6,-25.6,64,30.35,10.0,Calm,Calm,-,N/A,,Clear,0,2014-01-21 14:35:00
8:56 AM,-16.6,-23.8,70,30.33,10.0,Calm,Calm,-,N/A,,Clear,0,2014-01-21 14:56:00
9:15 AM,-16.6,-23.8,70,30.34,10.0,Calm,Calm,-,N/A,,Clear,0,2014-01-21 15:15:00
9:35 AM,-14.8,-23.8,64,30.34,10.0,Calm,Calm,-,N/A,,Clear,0,2014-01-21 15:35:00
9:56 AM,-13.0,-22.0,64,30.34,10.0,Calm,Calm,-,N/A,,Clear,0,2014-01-21 15:56:00
10:15 AM,-11.2,-20.2,64,30.34,10.0,SSW,3.5,-,N/A,,Clear,210,2014-01-21 16:15:00
10:36 AM,-11.2,-20.2,64,30.34,10.0,South,5.8,-,N/A,,Clear,190,2014-01-21 16:36:00
10:55 AM,-9.4,-20.2,59,30.33,10.0,South,4.6,-,N/A,,Clear,180,2014-01-21 16:55:00
11:16 AM,-9.4,-18.4,65,30.32,10.0,South,6.9,-,N/A,,Clear,180,2014-01-21 17:16:00
11:35 AM,-7.6,-18.4,59,30.31,10.0,South,6.9,-,N/A,,Clear,180,2014-01-21 17:35:00
11:55 AM,-7.6,-18.4,59,30.28,10.0,South,9.2,-,N/A,,Clear,180,2014-01-21 17:55:00
12:15 PM,-5.8,-16.6,60,30.26,10.0,South,6.9,-,N/A,,Clear,170,2014-01-21 18:15:00
12:35 PM,-5.8,-16.6,60,30.25,10.0,SSW,6.9,-,N/A,,Clear,200,2014-01-21 18:35:00
12:56 PM,-5.8,-16.6,60,30.23,10.0,South,3.5,-,N/A,,Clear,190,2014-01-21 18:56:00
1:15 PM,-4.0,-14.8,60,30.22,10.0,SSE,5.8,-,N/A,,Clear,150,2014-01-21 19:15:00
1:35 PM,-2.2,-14.8,55,30.21,10.0,South,3.5,-,N/A,,Clear,170,2014-01-21 19:35:00
1:56 PM,-2.2,-14.8,55,30.19,10.0,SSW,4.6,-,N/A,,Scattered Clouds,200,2014-01-21 19:56:00
2:15 PM,-2.2,-14.8,55,30.18,10.0,South,4.6,-,N/A,,Mostly Cloudy,170,2014-01-21 20:15:00
2:35 PM,-2.2,-13.0,60,30.16,10.0,South,6.9,-,N/A,,Mostly Cloudy,170,2014-01-21 20:35:00
2:55 PM,-0.4,-13.0,55,30.15,10.0,SSW,4.6,-,N/A,,Mostly Cloudy,200,2014-01-21 20:55:00
3:16 PM,-0.4,-11.2,60,30.15,10.0,South,3.5,-,N/A,,Scattered Clouds,190,2014-01-21 21:16:00
3:35 PM,-0.4,-11.2,60,30.13,5.0,SSE,6.9,-,N/A,Snow,Light Snow,150,2014-01-21 21:35:00
3:55 PM,-0.4,-9.4,66,30.13,4.0,SSE,5.8,-,N/A,Snow,Light Snow,150,2014-01-21 21:55:00
4:16 PM,-0.4,-9.4,66,30.13,4.0,SSE,4.6,-,N/A,Snow,Light Snow,150,2014-01-21 22:16:00
4:35 PM,-0.4,-9.4,66,30.11,3.0,SSE,5.8,-,N/A,Snow,Light Snow,160,2014-01-21 22:35:00
4:55 PM,-0.4,-9.4,66,30.12,2.0,SE,3.5,-,N/A,Snow,Light Snow,140,2014-01-21 22:55:00
5:16 PM,-0.4,-7.6,72,30.11,3.0,SSE,3.5,-,N/A,Snow,Light Snow,150,2014-01-21 23:16:00
5:35 PM,-0.4,-7.6,72,30.11,2.5,South,3.5,-,N/A,Snow,Light Snow,190,2014-01-21 23:35:00
5:55 PM,-0.4,-7.6,72,30.11,10.0,SSE,3.5,-,N/A,Snow,Light Snow,160,2014-01-21 23:55:00
6:15 PM,-0.4,-7.6,72,30.10,3.0,Calm,Calm,-,N/A,Snow,Light Snow,0,2014-01-22 00:15:00
6:35 PM,1.4,-7.6,66,30.09,5.0,SSE,6.9,-,N/A,Snow,Light Snow,160,2014-01-22 00:35:00
6:56 PM,1.4,-7.6,66,30.07,5.0,SE,3.5,-,N/A,Snow,Light Snow,140,2014-01-22 00:56:00
7:15 PM,-0.4,-7.6,72,30.06,7.0,SSE,8.1,-,N/A,Snow,Light Snow,150,2014-01-22 01:15:00
7:36 PM,-0.4,-7.6,72,30.04,5.0,SSE,8.1,-,N/A,Snow,Light Snow,150,2014-01-22 01:36:00
7:55 PM,-0.4,-7.6,72,30.03,10.0,SSE,9.2,-,N/A,Snow,Light Snow,160,2014-01-22 01:55:00
8:15 PM,-0.4,-7.6,72,30.02,10.0,South,5.8,-,N/A,Snow,Light Snow,170,2014-01-22 02:15:00
8:36 PM,1.4,-7.6,66,30.03,7.0,South,4.6,-,N/A,Snow,Light Snow,180,2014-01-22 02:36:00
8:55 PM,1.4,-7.6,66,30.01,2.5,South,5.8,-,N/A,Snow,Light Snow,170,2014-01-22 02:55:00
9:15 PM,1.4,-7.6,66,30.01,3.0,South,4.6,-,N/A,Snow,Light Snow,180,2014-01-22 03:15:00
9:36 PM,1.4,-7.6,66,30.00,2.5,South,4.6,-,N/A,Snow,Light Snow,180,2014-01-22 03:36:00
9:55 PM,1.4,-5.8,72,29.99,2.0,South,3.5,-,N/A,Snow,Light Snow,170,2014-01-22 03:55:00
10:15 PM,1.4,-5.8,72,29.98,2.0,South,3.5,-,N/A,Snow,Light Snow,170,2014-01-22 04:15:00
10:36 PM,1.4,-5.8,72,29.98,2.0,Calm,Calm,-,N/A,Snow,Light Snow,0,2014-01-22 04:36:00
10:55 PM,1.4,-5.8,72,29.97,3.0,Calm,Calm,-,N/A,Snow,Light Snow,0,2014-01-22 04:55:00
11:16 PM,1.4,-5.8,72,29.97,2.0,Calm,Calm,-,N/A,Snow,Light Snow,0,2014-01-22 05:16:00
11:35 PM,1.4,-5.8,72,29.96,1.5,Calm,Calm,-,N/A,Snow,Light Snow,0,2014-01-22 05:35:00
11:55 PM,1.4,-5.8,72,29.95,3.0,Calm,Calm,-,N/A,Snow,Light Snow,0,2014-01-22 05:55:00